BKP908 VTBS-VTSM

Flight info

Callsign BKP908
Flight time 0h 48m
Altitude 33000
Route KASNI1G KASNI M757 MABKO W33 UPNEP
Aircraft A319/M-SDE3FGHIRWY/LB1

Departure

Time 2026-04-14 07:38
Airport Suvarnabhumi Airport (VTBS)

Arrival

Time 2026-04-14 08:27
Airport Samui International Airport (VTSM)
Time Latitude Longitude Altitude Speed Heading
2026-04-14 06:59 13.69342 100.74574 14 ft 0 kts 194°
2026-04-14 07:25 13.69344 100.74575 13 ft 1 kts 194°
2026-04-14 07:25 13.69361 100.74579 13 ft 3 kts 194°
2026-04-14 07:25 13.69379 100.74584 17 ft 3 kts 176°
2026-04-14 07:26 13.69397 100.74579 15 ft 3 kts 162°
2026-04-14 07:26 13.69416 100.74575 14 ft 3 kts 168°
2026-04-14 07:26 13.69436 100.74569 14 ft 3 kts 161°
2026-04-14 07:26 13.69453 100.74564 15 ft 1 kts 173°
2026-04-14 07:27 13.69459 100.74563 14 ft 0 kts 173°
2026-04-14 07:31 13.69455 100.74563 15 ft 1 kts 178°
2026-04-14 07:32 13.69444 100.74551 13 ft 4 kts 242°
2026-04-14 07:32 13.69446 100.74513 13 ft 7 kts 283°
2026-04-14 07:32 13.69459 100.74459 13 ft 9 kts 284°
2026-04-14 07:32 13.69475 100.74395 13 ft 10 kts 284°
2026-04-14 07:33 13.69494 100.74324 13 ft 11 kts 291°
2026-04-14 07:33 13.69561 100.74298 13 ft 12 kts 14°
2026-04-14 07:33 13.69633 100.74317 13 ft 10 kts 14°
2026-04-14 07:34 13.69869 100.74379 14 ft 13 kts 14°
2026-04-14 07:34 13.69955 100.74401 13 ft 13 kts 14°
2026-04-14 07:34 13.70011 100.74416 14 ft 11 kts 14°
2026-04-14 07:35 13.70087 100.74436 14 ft 12 kts 14°
2026-04-14 07:35 13.70168 100.74457 14 ft 12 kts 14°
2026-04-14 07:35 13.70265 100.74483 14 ft 8 kts 14°
2026-04-14 07:35 13.70318 100.74474 14 ft 8 kts 325°
2026-04-14 07:36 13.70338 100.74431 14 ft 1 kts 282°
2026-04-14 07:36 13.70338 100.74430 14 ft 0 kts 282°
2026-04-14 07:36 13.70339 100.74425 14 ft 1 kts 282°
2026-04-14 07:37 13.70342 100.74413 14 ft 3 kts 282°
2026-04-14 07:37 13.70347 100.74385 14 ft 5 kts 274°
2026-04-14 07:37 13.70320 100.74317 15 ft 11 kts 229°
2026-04-14 07:37 13.70270 100.74293 15 ft 14 kts 193°
2026-04-14 07:38 13.70158 100.74264 15 ft 26 kts 194°
2026-04-14 07:38 13.69688 100.74139 12 ft 114 kts 194°
2026-04-14 07:38 13.68675 100.73877 122 ft 174 kts 194°
2026-04-14 07:38 13.67482 100.73567 952 ft 176 kts 194°
2026-04-14 07:39 13.66281 100.73254 1851 ft 180 kts 193°
2026-04-14 07:39 13.65067 100.72956 2687 ft 179 kts 193°
2026-04-14 07:39 13.63843 100.72644 3158 ft 188 kts 194°
2026-04-14 07:39 13.62505 100.72285 3346 ft 211 kts 194°
2026-04-14 07:40 13.60998 100.71878 3605 ft 236 kts 194°
2026-04-14 07:40 13.59324 100.71430 4022 ft 259 kts 193°
2026-04-14 07:40 13.57540 100.70954 4731 ft 270 kts 194°
2026-04-14 07:40 13.55703 100.70465 5553 ft 275 kts 194°
2026-04-14 07:41 13.53831 100.69968 6398 ft 279 kts 194°
2026-04-14 07:41 13.51918 100.69555 7166 ft 284 kts 185°
2026-04-14 07:41 13.49960 100.69422 7961 ft 288 kts 182°
2026-04-14 07:41 13.47943 100.69326 8747 ft 292 kts 181°
2026-04-14 07:42 13.45898 100.69248 9539 ft 297 kts 181°
2026-04-14 07:42 13.43816 100.69174 10232 ft 304 kts 181°
2026-04-14 07:42 13.41626 100.69097 10460 ft 327 kts 181°
2026-04-14 07:42 13.39283 100.69012 10715 ft 345 kts 181°
2026-04-14 07:43 13.36859 100.68922 11273 ft 351 kts 181°
2026-04-14 07:43 13.34406 100.68832 11940 ft 354 kts 181°
2026-04-14 07:43 13.31940 100.68740 12608 ft 356 kts 182°
2026-04-14 07:43 13.29453 100.68647 13248 ft 359 kts 182°
2026-04-14 07:44 13.26983 100.68553 13896 ft 360 kts 182°
2026-04-14 07:44 13.24466 100.68455 14447 ft 364 kts 182°
2026-04-14 07:44 13.21925 100.68360 14974 ft 368 kts 182°
2026-04-14 07:44 13.19353 100.68265 15498 ft 371 kts 182°
2026-04-14 07:45 13.16768 100.68166 16070 ft 373 kts 182°
2026-04-14 07:45 13.14169 100.68064 16655 ft 374 kts 183°
2026-04-14 07:45 13.11552 100.67962 17162 ft 378 kts 183°
2026-04-14 07:45 13.08911 100.67860 17692 ft 381 kts 183°
2026-04-14 07:46 13.06255 100.67763 18239 ft 383 kts 183°
2026-04-14 07:46 13.03577 100.67682 18689 ft 387 kts 182°
2026-04-14 07:46 13.00913 100.67615 19137 ft 390 kts 182°
2026-04-14 07:46 12.98187 100.67552 19555 ft 394 kts 182°
2026-04-14 07:47 12.95439 100.67491 20043 ft 396 kts 182°
2026-04-14 07:47 12.92668 100.67425 20472 ft 400 kts 182°
2026-04-14 07:47 12.89873 100.67352 20905 ft 404 kts 181°
2026-04-14 07:47 12.87047 100.67278 21326 ft 408 kts 181°
2026-04-14 07:48 12.84202 100.67204 21764 ft 411 kts 181°
2026-04-14 07:48 12.81335 100.67128 22173 ft 414 kts 181°
2026-04-14 07:48 12.78443 100.67052 22579 ft 417 kts 181°
2026-04-14 07:48 12.75527 100.66977 22980 ft 420 kts 180°
2026-04-14 07:49 12.72600 100.66902 23367 ft 423 kts 180°
2026-04-14 07:49 12.69639 100.66828 23700 ft 426 kts 181°
2026-04-14 07:49 12.66707 100.66754 24026 ft 429 kts 180°
2026-04-14 07:49 12.63718 100.66675 24359 ft 431 kts 181°
2026-04-14 07:50 12.60712 100.66594 24685 ft 433 kts 181°
2026-04-14 07:50 12.57690 100.66512 25011 ft 435 kts 181°
2026-04-14 07:50 12.54654 100.66431 25337 ft 438 kts 181°
2026-04-14 07:50 12.51603 100.66352 25648 ft 440 kts 181°
2026-04-14 07:51 12.48539 100.66274 25827 ft 441 kts 181°
2026-04-14 07:51 12.45462 100.66195 25871 ft 441 kts 181°
2026-04-14 07:51 12.42399 100.66117 25869 ft 441 kts 181°
2026-04-14 07:51 12.39329 100.66037 25865 ft 441 kts 181°
2026-04-14 07:52 12.36309 100.65957 25865 ft 440 kts 181°
2026-04-14 07:52 12.33244 100.65874 25862 ft 440 kts 181°
2026-04-14 07:52 12.30176 100.65790 25862 ft 441 kts 181°
2026-04-14 07:52 12.27113 100.65708 25859 ft 441 kts 181°
2026-04-14 07:53 12.24045 100.65629 25859 ft 441 kts 181°
2026-04-14 07:53 12.20978 100.65552 25859 ft 441 kts 181°
2026-04-14 07:53 12.17909 100.65475 25861 ft 441 kts 181°
2026-04-14 07:53 12.14841 100.65398 25859 ft 441 kts 181°
2026-04-14 07:54 12.11769 100.65321 25920 ft 443 kts 181°
2026-04-14 07:54 12.08683 100.65241 26209 ft 444 kts 181°
2026-04-14 07:54 12.05628 100.65162 26504 ft 446 kts 181°
2026-04-14 07:54 12.02517 100.65080 26803 ft 448 kts 181°
2026-04-14 07:55 11.99394 100.64999 27098 ft 450 kts 181°
2026-04-14 07:55 11.96252 100.64918 27384 ft 453 kts 181°
2026-04-14 07:55 11.93094 100.64836 27691 ft 455 kts 181°
2026-04-14 07:55 11.89925 100.64753 27995 ft 457 kts 181°
2026-04-14 07:56 11.86741 100.64671 28303 ft 459 kts 181°
2026-04-14 07:56 11.83542 100.64591 28606 ft 460 kts 181°
2026-04-14 07:56 11.80335 100.64513 28883 ft 463 kts 181°
2026-04-14 07:56 11.77109 100.64433 29181 ft 464 kts 181°
2026-04-14 07:57 11.73870 100.64348 29439 ft 467 kts 181°
2026-04-14 07:57 11.70617 100.64262 29702 ft 469 kts 181°
2026-04-14 07:57 11.67394 100.64178 29970 ft 471 kts 181°
2026-04-14 07:57 11.64115 100.64097 30193 ft 472 kts 181°
2026-04-14 07:58 11.60822 100.64018 30440 ft 473 kts 181°
2026-04-14 07:58 11.57524 100.63938 30665 ft 475 kts 181°
2026-04-14 07:58 11.54214 100.63857 30882 ft 477 kts 181°
2026-04-14 07:58 11.50898 100.63776 31141 ft 477 kts 182°
2026-04-14 07:59 11.47583 100.63692 31468 ft 476 kts 182°
2026-04-14 07:59 11.44276 100.63607 31806 ft 475 kts 182°
2026-04-14 07:59 11.41024 100.63524 32138 ft 474 kts 182°
2026-04-14 07:59 11.37732 100.63438 32490 ft 472 kts 182°
2026-04-14 08:00 11.34447 100.63351 32781 ft 472 kts 182°
2026-04-14 08:00 11.27953 100.63183 32866 ft 461 kts 182°
2026-04-14 08:01 11.21559 100.63031 32865 ft 459 kts 182°
2026-04-14 08:01 11.15182 100.62877 32862 ft 458 kts 182°
2026-04-14 08:02 11.08813 100.62718 32862 ft 458 kts 182°
2026-04-14 08:02 11.02480 100.62550 32859 ft 458 kts 182°
2026-04-14 08:03 10.96114 100.62388 32860 ft 458 kts 182°
2026-04-14 08:03 10.89749 100.62237 32857 ft 457 kts 182°
2026-04-14 08:04 10.83387 100.62078 32853 ft 457 kts 182°
2026-04-14 08:04 10.77003 100.61911 32870 ft 464 kts 182°
2026-04-14 08:05 10.70542 100.61747 32779 ft 468 kts 182°
2026-04-14 08:05 10.67266 100.61665 31758 ft 476 kts 182°
2026-04-14 08:05 10.63923 100.61584 30614 ft 485 kts 181°
2026-04-14 08:05 10.60524 100.61502 29547 ft 491 kts 181°
2026-04-14 08:06 10.57121 100.61419 28767 ft 487 kts 181°
2026-04-14 08:06 10.53754 100.61334 28067 ft 481 kts 181°
2026-04-14 08:06 10.50430 100.61249 27364 ft 475 kts 181°
2026-04-14 08:06 10.47142 100.61165 26689 ft 470 kts 181°
2026-04-14 08:07 10.43891 100.61082 26014 ft 465 kts 181°
2026-04-14 08:07 10.40674 100.61001 25351 ft 460 kts 181°
2026-04-14 08:07 10.37535 100.60925 24718 ft 455 kts 180°
2026-04-14 08:07 10.34381 100.60848 24093 ft 451 kts 180°
2026-04-14 08:08 10.31263 100.60771 23489 ft 446 kts 180°
2026-04-14 08:08 10.28175 100.60696 22759 ft 442 kts 180°
2026-04-14 08:08 10.25133 100.60421 22059 ft 438 kts 191°
2026-04-14 08:08 10.22284 100.59400 21396 ft 434 kts 207°
2026-04-14 08:09 10.19828 100.57658 20746 ft 430 kts 222°
2026-04-14 08:09 10.17709 100.55535 20113 ft 426 kts 225°
2026-04-14 08:09 10.15632 100.53419 19506 ft 421 kts 225°
2026-04-14 08:09 10.13578 100.51322 18941 ft 417 kts 225°
2026-04-14 08:10 10.11545 100.49245 18402 ft 412 kts 225°
2026-04-14 08:10 10.09564 100.47222 17831 ft 408 kts 225°
2026-04-14 08:10 10.07572 100.45194 17179 ft 404 kts 225°
2026-04-14 08:10 10.05592 100.43182 16515 ft 401 kts 224°
2026-04-14 08:11 10.03628 100.41187 15853 ft 398 kts 224°
2026-04-14 08:11 10.01684 100.39212 15398 ft 390 kts 224°
2026-04-14 08:11 9.99812 100.37307 15277 ft 372 kts 224°
2026-04-14 08:11 9.98024 100.35490 15158 ft 356 kts 224°
2026-04-14 08:12 9.96319 100.33756 14989 ft 338 kts 224°
2026-04-14 08:12 9.94683 100.32096 14512 ft 329 kts 224°
2026-04-14 08:12 9.93074 100.30467 13943 ft 325 kts 224°
2026-04-14 08:12 9.91482 100.28856 13319 ft 322 kts 224°
2026-04-14 08:13 9.89922 100.27276 12681 ft 319 kts 224°
2026-04-14 08:13 9.88357 100.25693 12061 ft 316 kts 224°
2026-04-14 08:13 9.86818 100.24130 11571 ft 310 kts 224°
2026-04-14 08:13 9.85309 100.22595 11028 ft 306 kts 224°
2026-04-14 08:14 9.83812 100.21072 10464 ft 303 kts 224°
2026-04-14 08:14 9.82328 100.19565 9937 ft 301 kts 224°
2026-04-14 08:14 9.80852 100.18071 9355 ft 299 kts 224°
2026-04-14 08:14 9.79383 100.16587 8769 ft 296 kts 224°
2026-04-14 08:15 9.77947 100.15130 8465 ft 284 kts 224°
2026-04-14 08:15 9.76594 100.13757 8338 ft 267 kts 224°
2026-04-14 08:15 9.75322 100.12466 8198 ft 251 kts 224°
2026-04-14 08:15 9.74117 100.11241 8008 ft 244 kts 224°
2026-04-14 08:16 9.72858 100.10120 7654 ft 245 kts 207°
2026-04-14 08:16 9.71254 100.09645 7347 ft 240 kts 179°
2026-04-14 08:16 9.69646 100.09976 7051 ft 236 kts 152°
2026-04-14 08:16 9.68379 100.10985 6755 ft 232 kts 126°
2026-04-14 08:17 9.67692 100.12436 6481 ft 229 kts 101°
2026-04-14 08:17 9.67697 100.14031 6178 ft 228 kts 76°
2026-04-14 08:17 9.68383 100.15459 5862 ft 228 kts 51°
2026-04-14 08:17 9.69618 100.16458 5515 ft 230 kts 28°
2026-04-14 08:18 9.71062 100.17168 5192 ft 231 kts 25°
2026-04-14 08:18 9.72529 100.17835 4899 ft 231 kts 25°
2026-04-14 08:18 9.73980 100.18483 4613 ft 231 kts 25°
2026-04-14 08:18 9.75447 100.19142 4311 ft 230 kts 24°
2026-04-14 08:19 9.76911 100.19797 4004 ft 230 kts 22°
2026-04-14 08:19 9.78473 100.20067 3707 ft 230 kts 357°
2026-04-14 08:19 9.79993 100.19612 3410 ft 229 kts 329°
2026-04-14 08:19 9.81138 100.18514 3274 ft 229 kts 302°
2026-04-14 08:20 9.81678 100.17009 3273 ft 230 kts 274°
2026-04-14 08:20 9.81489 100.15419 3269 ft 228 kts 247°
2026-04-14 08:20 9.80627 100.14096 3270 ft 226 kts 220°
2026-04-14 08:20 9.79348 100.13272 3262 ft 210 kts 204°
2026-04-14 08:21 9.78087 100.12672 3258 ft 198 kts 202°
2026-04-14 08:21 9.76824 100.12102 3261 ft 195 kts 202°
2026-04-14 08:21 9.75644 100.11572 3283 ft 176 kts 202°
2026-04-14 08:21 9.74611 100.11104 3261 ft 147 kts 201°
2026-04-14 08:22 9.73714 100.10694 3258 ft 138 kts 201°
2026-04-14 08:22 9.72838 100.10295 3261 ft 138 kts 202°
2026-04-14 08:22 9.71965 100.09897 3262 ft 138 kts 202°
2026-04-14 08:22 9.71090 100.09496 3261 ft 138 kts 201°
2026-04-14 08:23 9.70209 100.09093 3081 ft 138 kts 201°
2026-04-14 08:23 9.69337 100.08693 2896 ft 137 kts 202°
2026-04-14 08:23 9.68467 100.08296 2696 ft 137 kts 201°
2026-04-14 08:23 9.67592 100.07896 2514 ft 138 kts 202°
2026-04-14 08:24 9.66719 100.07496 2325 ft 137 kts 202°
2026-04-14 08:24 9.65861 100.07102 2129 ft 137 kts 202°
2026-04-14 08:24 9.64996 100.06705 1934 ft 136 kts 201°
2026-04-14 08:24 9.64130 100.06308 1742 ft 136 kts 202°
2026-04-14 08:25 9.63266 100.05911 1557 ft 136 kts 202°
2026-04-14 08:25 9.62374 100.05622 1368 ft 135 kts 188°
2026-04-14 08:25 9.61449 100.05589 1185 ft 132 kts 171°
2026-04-14 08:25 9.60536 100.05683 1012 ft 133 kts 171°
2026-04-14 08:26 9.59613 100.05773 848 ft 132 kts 171°
2026-04-14 08:26 9.58704 100.05860 644 ft 130 kts 171°
2026-04-14 08:26 9.57810 100.05954 481 ft 128 kts 171°
2026-04-14 08:26 9.56936 100.06040 307 ft 127 kts 171°
2026-04-14 08:27 9.56056 100.06125 187 ft 128 kts 171°
2026-04-14 08:27 9.55183 100.06209 52 ft 119 kts 172°
2026-04-14 08:27 9.54623 100.06268 51 ft 38 kts 176°
2026-04-14 08:27 9.54561 100.06272 53 ft 3 kts 175°
2026-04-14 08:28 9.54512 100.06277 53 ft 11 kts 175°
2026-04-14 08:28 9.54425 100.06284 53 ft 14 kts 175°
2026-04-14 08:28 9.54322 100.06293 53 ft 16 kts 174°
2026-04-14 08:28 9.54204 100.06303 53 ft 18 kts 175°
2026-04-14 08:29 9.54072 100.06316 53 ft 20 kts 174°
2026-04-14 08:29 9.53948 100.06319 53 ft 17 kts 191°
2026-04-14 08:29 9.53862 100.06311 53 ft 11 kts 173°
2026-04-14 08:29 9.53877 100.06339 53 ft 9 kts 347°
2026-04-14 08:30 9.53953 100.06328 47 ft 13 kts 354°
2026-04-14 08:30 9.54054 100.06318 50 ft 16 kts 354°
2026-04-14 08:30 9.54178 100.06304 53 ft 20 kts 353°
2026-04-14 08:30 9.54325 100.06285 51 ft 23 kts 354°
2026-04-14 08:31 9.54487 100.06272 53 ft 24 kts 355°
2026-04-14 08:31 9.54839 100.06239 53 ft 27 kts 355°
2026-04-14 08:31 9.54953 100.06230 53 ft 12 kts 356°
2026-04-14 08:32 9.55009 100.06268 53 ft 12 kts 76°
2026-04-14 08:32 9.55029 100.06301 51 ft 3 kts 34°
2026-04-14 08:32 9.55045 100.06318 53 ft 4 kts 63°
2026-04-14 08:32 9.55049 100.06342 53 ft 3 kts 83°
2026-04-14 08:33 9.55049 100.06346 53 ft 0 kts 83°